| time (UTC) | temp C | wind direction | speed KPH | gust KPH | rain 1hr cm | rain 24hr cm | rain mn cm | humidity % | barometer mb |
| 20260505125004 | 17 | 78 | 1.6 | 9.7 | 0.00 | 0.00 | 0.00 | 76 | 1017.9 |
| 20260505124507 | 17 | 296 | 3.2 | 9.7 | 0.00 | 0.00 | 0.00 | 77 | 1017.9 |
| 20260505124005 | 17 | 295 | 1.6 | 4.8 | 0.00 | 0.00 | 0.00 | 77 | 1017.9 |
| 20260505123505 | 17 | 228 | 0.0 | 3.2 | 0.00 | 0.00 | 0.00 | 79 | 1017.9 |
| 20260505123007 | 16 | 288 | 0.0 | 3.2 | 0.00 | 0.00 | 0.00 | 80 | 1017.8 |
| 20260505122503 | 16 | 224 | 0.0 | 3.2 | 0.00 | 0.00 | 0.00 | 82 | 1017.9 |
| 20260505122006 | 15 | 255 | 0.0 | 4.8 | 0.00 | 0.00 | 0.00 | 84 | 1017.9 |
| 20260505121508 | 15 | 205 | 0.0 | 4.8 | 0.00 | 0.00 | 0.00 | 85 | 1017.9 |
| 20260505121004 | 14 | 239 | 0.0 | 3.2 | 0.00 | 0.00 | 0.00 | 88 | 1017.9 |
| 20260505120504 | 13 | 239 | 0.0 | 3.2 | 0.00 | 0.00 | 0.00 | 90 | 1017.9 |
| 20260505120008 | 13 | 239 | 0.0 | 3.2 | 0.00 | 0.00 | 0.00 | 90 | 1017.7 |
| 20260505115506 | 13 | 239 | 0.0 | 3.2 | 0.00 | 0.00 | 0.00 | 91 | 1017.7 |
| 20260505115004 | 13 | 242 | 0.0 | 1.6 | 0.00 | 0.00 | 0.00 | 92 | 1017.8 |
| 20260505114511 | 12 | 242 | 0.0 | 1.6 | 0.00 | 0.00 | 0.00 | 92 | 1017.7 |
| 20260505114004 | 12 | 242 | 0.0 | 1.6 | 0.00 | 0.00 | 0.00 | 94 | 1017.7 |
| 20260505113504 | 12 | 242 | 0.0 | 1.6 | 0.00 | 0.00 | 0.00 | 94 | 1017.6 |
| 20260505113008 | 11 | 242 | 0.0 | 1.6 | 0.00 | 0.00 | 0.00 | 95 | 1017.7 |
| 20260505112503 | 11 | 242 | 0.0 | 0.0 | 0.00 | 0.00 | 0.00 | 95 | 1017.7 |
| 20260505112009 | 11 | 242 | 0.0 | 1.6 | 0.00 | 0.00 | 0.00 | 95 | 1017.6 |
| 20260505111511 | 11 | 242 | 0.0 | 1.6 | 0.00 | 0.00 | 0.00 | 95 | 1017.5 |
| 20260505111009 | 11 | 242 | 0.0 | 0.0 | 0.00 | 0.00 | 0.00 | 94 | 1017.6 |
| 20260505110508 | 11 | 242 | 0.0 | 0.0 | 0.00 | 0.00 | 0.00 | 94 | 1017.5 |
| 20260505102011 | 10 | 241 | 0.0 | 0.0 | 0.00 | 0.00 | 0.00 | 94 | 1017.0 |
| 20260505101519 | 10 | 241 | 0.0 | 0.0 | 0.00 | 0.00 | 0.00 | 94 | 1017.0 |
| 20260505101008 | 10 | 241 | 0.0 | 0.0 | 0.00 | 0.00 | 0.00 | 94 | 1016.9 |
| 20260505100511 | 10 | 241 | 0.0 | 0.0 | 0.00 | 0.00 | 0.00 | 94 | 1016.9 |
| 20260505100013 | 10 | 241 | 0.0 | 1.6 | 0.00 | 0.00 | 0.00 | 94 | 1016.9 |
| 20260505095506 | 10 | 241 | 0.0 | 1.6 | 0.00 | 0.00 | 0.00 | 93 | 1017.0 |
| 20260505095009 | 10 | 241 | 0.0 | 1.6 | 0.00 | 0.00 | 0.00 | 93 | 1016.9 |
| 20260505094524 | 10 | 241 | 0.0 | 1.6 | 0.00 | 0.00 | 0.00 | 94 | 1016.9 |
| 20260505094005 | 10 | 241 | 0.0 | 0.0 | 0.00 | 0.00 | 0.00 | 93 | 1016.9 |
| 20260505093505 | 10 | 241 | 0.0 | 0.0 | 0.00 | 0.00 | 0.00 | 93 | 1017.0 |
| 20260505093016 | 10 | 241 | 0.0 | 0.0 | 0.00 | 0.00 | 0.00 | 93 | 1017.0 |
| 20260505092506 | 10 | 241 | 0.0 | 0.0 | 0.00 | 0.00 | 0.00 | 93 | 1017.0 |
| 20260505092007 | 10 | 241 | 0.0 | 0.0 | 0.00 | 0.00 | 0.00 | 92 | 1017.0 |
| 20260505091512 | 10 | 241 | 0.0 | 0.0 | 0.00 | 0.00 | 0.00 | 92 | 1016.9 |
| 20260505091009 | 10 | 241 | 0.0 | 0.0 | 0.00 | 0.00 | 0.00 | 92 | 1016.7 |
| 20260505090507 | 10 | 241 | 0.0 | 0.0 | 0.00 | 0.00 | 0.00 | 92 | 1016.7 |
| 20260505090017 | 10 | 241 | 0.0 | 0.0 | 0.00 | 0.00 | 0.00 | 92 | 1016.6 |
| 20260505085508 | 10 | 241 | 0.0 | 0.0 | 0.00 | 0.00 | 0.00 | 91 | 1016.6 |
| 20260505085011 | 10 | 241 | 0.0 | 0.0 | 0.00 | 0.00 | 0.00 | 91 | 1016.6 |
| 20260505084522 | 10 | 241 | 0.0 | 0.0 | 0.00 | 0.00 | 0.00 | 91 | 1016.6 |
| 20260505084007 | 11 | 241 | 0.0 | 0.0 | 0.00 | 0.00 | 0.00 | 91 | 1016.6 |
| 20260505083507 | 11 | 241 | 0.0 | 0.0 | 0.00 | 0.00 | 0.00 | 91 | 1016.6 |
| 20260505083019 | 11 | 241 | 0.0 | 0.0 | 0.00 | 0.00 | 0.00 | 90 | 1016.5 |
| 20260505082508 | 11 | 241 | 0.0 | 0.0 | 0.00 | 0.00 | 0.00 | 90 | 1016.5 |
| 20260505082008 | 11 | 241 | 0.0 | 0.0 | 0.00 | 0.00 | 0.00 | 90 | 1016.5 |
| 20260505081517 | 11 | 241 | 0.0 | 0.0 | 0.00 | 0.00 | 0.00 | 90 | 1016.5 |
| 20260505081005 | 11 | 241 | 0.0 | 0.0 | 0.00 | 0.00 | 0.00 | 90 | 1016.4 |
| 20260505080509 | 11 | 241 | 0.0 | 0.0 | 0.00 | 0.00 | 0.00 | 90 | 1016.4 |
| 20260505080014 | 10 | 241 | 0.0 | 0.0 | 0.00 | 0.00 | 0.00 | 90 | 1016.4 |
| 20260505075507 | 11 | 241 | 0.0 | 0.0 | 0.00 | 0.00 | 0.00 | 89 | 1016.3 |
| 20260505075010 | 11 | 241 | 0.0 | 0.0 | 0.00 | 0.00 | 0.00 | 89 | 1016.3 |
| 20260505074520 | 11 | 241 | 0.0 | 1.6 | 0.00 | 0.00 | 0.00 | 88 | 1016.3 |
| 20260505074008 | 11 | 241 | 0.0 | 1.6 | 0.00 | 0.00 | 0.00 | 88 | 1016.3 |
| 20260505073509 | 11 | 241 | 0.0 | 0.0 | 0.00 | 0.00 | 0.00 | 88 | 1016.4 |
| 20260505073029 | 11 | 241 | 0.0 | 0.0 | 0.00 | 0.00 | 0.00 | 88 | 1016.4 |
| 20260505072507 | 11 | 241 | 0.0 | 0.0 | 0.00 | 0.00 | 0.00 | 88 | 1016.3 |
| 20260505072007 | 11 | 241 | 0.0 | 0.0 | 0.00 | 0.00 | 0.00 | 87 | 1016.3 |
| 20260505071518 | 11 | 240 | 0.0 | 0.0 | 0.00 | 0.00 | 0.00 | 87 | 1016.3 |
| 20260505071010 | 11 | 241 | 0.0 | 0.0 | 0.00 | 0.00 | 0.00 | 87 | 1016.3 |
| 20260505070508 | 11 | 241 | 0.0 | 0.0 | 0.00 | 0.00 | 0.00 | 85 | 1016.3 |
| 20260505070035 | 12 | 240 | 0.0 | 1.6 | 0.00 | 0.00 | 0.00 | 85 | 1016.3 |
| 20260505065508 | 12 | 240 | 0.0 | 1.6 | 0.00 | 0.00 | 0.00 | 85 | 1016.3 |
| 20260505065008 | 12 | 240 | 0.0 | 1.6 | 0.00 | 0.00 | 0.00 | 85 | 1016.3 |
| 20260505064521 | 12 | 240 | 0.0 | 0.0 | 0.00 | 0.00 | 0.00 | 84 | 1016.3 |
| 20260505064007 | 12 | 240 | 0.0 | 0.0 | 0.00 | 0.00 | 0.00 | 84 | 1016.4 |
| 20260505063508 | 12 | 240 | 0.0 | 0.0 | 0.00 | 0.00 | 0.00 | 83 | 1016.4 |
| 20260505063022 | 12 | 240 | 0.0 | 0.0 | 0.00 | 0.00 | 0.00 | 83 | 1016.6 |
| 20260505062511 | 12 | 240 | 0.0 | 0.0 | 0.00 | 0.00 | 0.00 | 82 | 1016.6 |
| 20260505062010 | 12 | 240 | 0.0 | 0.0 | 0.00 | 0.00 | 0.00 | 82 | 1016.6 |
| 20260505061524 | 12 | 240 | 0.0 | 0.0 | 0.00 | 0.00 | 0.00 | 81 | 1016.6 |
| 20260505061008 | 12 | 240 | 0.0 | 0.0 | 0.00 | 0.00 | 0.00 | 81 | 1016.7 |
| 20260505060510 | 12 | 240 | 0.0 | 0.0 | 0.00 | 0.00 | 0.00 | 81 | 1016.7 |
| 20260505060022 | 12 | 240 | 0.0 | 3.2 | 0.00 | 0.00 | 0.00 | 81 | 1016.8 |
| 20260505055510 | 12 | 240 | 0.0 | 3.2 | 0.00 | 0.00 | 0.00 | 81 | 1016.8 |
| 20260505055010 | 12 | 296 | 0.0 | 1.6 | 0.00 | 0.00 | 0.00 | 81 | 1016.8 |
| 20260505054530 | 12 | 296 | 0.0 | 0.0 | 0.00 | 0.00 | 0.00 | 81 | 1016.8 |
| 20260505054014 | 12 | 296 | 0.0 | 0.0 | 0.00 | 0.00 | 0.00 | 80 | 1016.8 |
| 20260505053514 | 12 | 296 | 0.0 | 1.6 | 0.00 | 0.00 | 0.00 | 80 | 1016.8 |
| 20260505053015 | 12 | 296 | 0.0 | 1.6 | 0.00 | 0.00 | 0.00 | 80 | 1016.8 |
| 20260505052507 | 12 | 296 | 0.0 | 1.6 | 0.00 | 0.00 | 0.00 | 80 | 1016.9 |
| 20260505052007 | 12 | 286 | 0.0 | 1.6 | 0.00 | 0.00 | 0.00 | 80 | 1017.0 |
| 20260505051520 | 12 | 266 | 0.0 | 1.6 | 0.00 | 0.00 | 0.00 | 80 | 1017.0 |
| 20260505051006 | 12 | 266 | 0.0 | 0.0 | 0.00 | 0.00 | 0.00 | 80 | 1017.1 |
| 20260505050507 | 13 | 266 | 0.0 | 0.0 | 0.00 | 0.00 | 0.00 | 80 | 1017.1 |
| 20260505041530 | 14 | 242 | 0.0 | 1.6 | 0.00 | 0.00 | 0.00 | 75 | 1017.1 |
| 20260505041008 | 14 | 242 | 0.0 | 1.6 | 0.00 | 0.00 | 0.00 | 74 | 1017.2 |
| 20260505040510 | 14 | 241 | 0.0 | 1.6 | 0.00 | 0.00 | 0.00 | 74 | 1017.1 |
| 20260505040029 | 14 | 241 | 0.0 | 1.6 | 0.00 | 0.00 | 0.00 | 74 | 1017.1 |
| 20260505035511 | 14 | 241 | 0.0 | 1.6 | 0.00 | 0.00 | 0.00 | 73 | 1017.1 |
| 20260505035008 | 15 | 241 | 0.0 | 1.6 | 0.00 | 0.00 | 0.00 | 73 | 1017.2 |
| 20260505034513 | 15 | 241 | 0.0 | 1.6 | 0.00 | 0.00 | 0.00 | 73 | 1017.2 |
| 20260505034004 | 15 | 240 | 0.0 | 1.6 | 0.00 | 0.00 | 0.00 | 72 | 1017.2 |
| 20260505033506 | 15 | 240 | 0.0 | 1.6 | 0.00 | 0.00 | 0.00 | 72 | 1017.3 |
| 20260505033010 | 15 | 244 | 0.0 | 1.6 | 0.00 | 0.00 | 0.00 | 71 | 1017.3 |
| 20260505032507 | 15 | 236 | 0.0 | 1.6 | 0.00 | 0.00 | 0.00 | 70 | 1017.3 |
| 20260505032009 | 15 | 236 | 0.0 | 1.6 | 0.00 | 0.00 | 0.00 | 69 | 1017.3 |
| 20260505031533 | 16 | 236 | 0.0 | 3.2 | 0.00 | 0.00 | 0.00 | 68 | 1017.2 |
| 20260505031005 | 16 | 236 | 0.0 | 3.2 | 0.00 | 0.00 | 0.00 | 68 | 1017.3 |
| 20260505030507 | 16 | 246 | 0.0 | 6.4 | 0.00 | 0.00 | 0.00 | 68 | 1017.3 |
| 20260505030022 | 16 | 245 | 0.0 | 6.4 | 0.00 | 0.00 | 0.00 | 67 | 1017.3 |
| 20260505025507 | 16 | 212 | 0.0 | 3.2 | 0.00 | 0.00 | 0.00 | 67 | 1017.3 |
| 20260505025014 | 16 | 211 | 0.0 | 3.2 | 0.00 | 0.00 | 0.00 | 66 | 1017.3 |
| 20260505024520 | 16 | 251 | 0.0 | 3.2 | 0.00 | 0.00 | 0.00 | 66 | 1017.2 |
| 20260505024007 | 17 | 292 | 0.0 | 3.2 | 0.00 | 0.00 | 0.00 | 65 | 1017.2 |
| 20260505023508 | 17 | 285 | 0.0 | 3.2 | 0.00 | 0.00 | 0.00 | 65 | 1017.2 |
| 20260505023022 | 17 | 243 | 1.6 | 4.8 | 0.00 | 0.00 | 0.00 | 64 | 1017.2 |
| 20260505022506 | 17 | 282 | 0.0 | 6.4 | 0.00 | 0.00 | 0.00 | 64 | 1017.2 |
| 20260505022006 | 17 | 7 | 1.6 | 8.0 | 0.00 | 0.00 | 0.00 | 65 | 1017.1 |
| 20260505021513 | 17 | 233 | 0.0 | 8.0 | 0.00 | 0.00 | 0.00 | 64 | 1017.0 |
| 20260505021010 | 17 | 319 | 0.0 | 3.2 | 0.00 | 0.00 | 0.00 | 64 | 1017.0 |
| 20260505020507 | 17 | 11 | 0.0 | 3.2 | 0.00 | 0.00 | 0.00 | 64 | 1017.0 |
| 20260505020018 | 17 | 229 | 0.0 | 3.2 | 0.00 | 0.00 | 0.00 | 63 | 1017.0 |
| 20260505015510 | 17 | 231 | 0.0 | 1.6 | 0.00 | 0.00 | 0.00 | 62 | 1016.8 |
| 20260505015008 | 17 | 359 | 0.0 | 4.8 | 0.00 | 0.00 | 0.00 | 62 | 1016.7 |
| 20260505014532 | 17 | 16 | 0.0 | 4.8 | 0.00 | 0.00 | 0.00 | 61 | 1016.7 |
| 20260505014009 | 18 | 261 | 0.0 | 4.8 | 0.00 | 0.00 | 0.00 | 61 | 1016.7 |
| 20260505013511 | 18 | 260 | 0.0 | 4.8 | 0.00 | 0.00 | 0.00 | 61 | 1016.6 |
| 20260505013023 | 18 | 161 | 1.6 | 4.8 | 0.00 | 0.00 | 0.00 | 61 | 1016.6 |
| 20260505012509 | 18 | 8 | 0.0 | 4.8 | 0.00 | 0.00 | 0.00 | 60 | 1016.5 |
| 20260505012008 | 18 | 14 | 0.0 | 6.4 | 0.00 | 0.00 | 0.00 | 60 | 1016.5 |
| 20260505011525 | 18 | 52 | 1.6 | 8.0 | 0.00 | 0.00 | 0.00 | 59 | 1016.4 |
| 20260505011010 | 18 | 196 | 3.2 | 8.0 | 0.00 | 0.00 | 0.00 | 59 | 1016.3 |
| 20260505010507 | 18 | 283 | 1.6 | 4.8 | 0.00 | 0.00 | 0.00 | 59 | 1016.2 |
| 20260505010021 | 18 | 101 | 1.6 | 4.8 | 0.00 | 0.00 | 0.00 | 59 | 1016.2 |
| 20260505005507 | 18 | 122 | 0.0 | 6.4 | 0.00 | 0.00 | 0.00 | 58 | 1016.1 |
| 20260505005008 | 18 | 139 | 1.6 | 6.4 | 0.00 | 0.00 | 0.00 | 58 | 1016.0 |
| 20260505004527 | 19 | 230 | 1.6 | 6.4 | 0.00 | 0.00 | 0.00 | 56 | 1015.9 |
| 20260505004008 | 19 | 286 | 0.0 | 4.8 | 0.00 | 0.00 | 0.00 | 55 | 1015.8 |
| 20260505003511 | 18 | 16 | 1.6 | 9.7 | 0.00 | 0.00 | 0.00 | 55 | 1015.7 |
| 20260505003024 | 18 | 338 | 1.6 | 9.7 | 0.00 | 0.00 | 0.00 | 55 | 1015.7 |
| 20260505002511 | 17 | 9 | 0.0 | 3.2 | 0.00 | 0.00 | 0.00 | 58 | 1015.6 |
| 20260505002009 | 18 | 326 | 0.0 | 0.0 | 0.00 | 0.00 | 0.00 | 55 | 1015.4 |
| 20260505001524 | 18 | 326 | 0.0 | 0.0 | 0.00 | 0.00 | 0.00 | 55 | 1015.4 |
| 20260505001008 | 19 | 326 | 0.0 | 0.0 | 0.00 | 0.00 | 0.00 | 53 | 1015.3 |
| 20260505000514 | 20 | 326 | 0.0 | 0.0 | 0.00 | 0.00 | 0.00 | 51 | 1015.4 |
| 20260505000030 | 20 | 326 | 0.0 | 0.0 | 0.00 | 0.00 | 0.00 | 47 | 1015.3 |
| 20260504235510 | 21 | 326 | 0.0 | 0.0 | 0.00 | 0.00 | 0.00 | 45 | 1015.2 |
| 20260504235013 | 21 | 326 | 0.0 | 1.6 | 0.00 | 0.00 | 0.00 | 45 | 1015.3 |
| 20260504234518 | 22 | 326 | 0.0 | 1.6 | 0.00 | 0.00 | 0.00 | 42 | 1015.2 |
| 20260504234008 | 22 | 326 | 0.0 | 3.2 | 0.00 | 0.00 | 0.00 | 41 | 1015.2 |
| 20260504233511 | 22 | 101 | 0.0 | 3.2 | 0.00 | 0.00 | 0.00 | 42 | 1015.2 |
| 20260504233023 | 22 | 115 | 0.0 | 4.8 | 0.00 | 0.00 | 0.00 | 40 | 1015.2 |
| 20260504232508 | 22 | 259 | 0.0 | 4.8 | 0.00 | 0.00 | 0.00 | 40 | 1015.1 |
| 20260504232007 | 23 | 238 | 0.0 | 4.8 | 0.00 | 0.00 | 0.00 | 41 | 1015.1 |
| 20260504231523 | 23 | 262 | 0.0 | 8.0 | 0.00 | 0.00 | 0.00 | 40 | 1015.2 |
| 20260504231012 | 23 | 282 | 1.6 | 8.0 | 0.00 | 0.00 | 0.00 | 38 | 1015.2 |
| 20260504230509 | 23 | 264 | 0.0 | 8.0 | 0.00 | 0.00 | 0.00 | 38 | 1015.2 |
| 20260504230026 | 24 | 73 | 3.2 | 8.0 | 0.00 | 0.00 | 0.00 | 36 | 1015.2 |
| 20260504225509 | 25 | 284 | 1.6 | 6.4 | 0.00 | 0.00 | 0.00 | 35 | 1015.1 |
| 20260504225009 | 25 | 322 | 0.0 | 4.8 | 0.00 | 0.00 | 0.00 | 37 | 1015.1 |
| 20260504224526 | 25 | 65 | 1.6 | 8.0 | 0.00 | 0.00 | 0.00 | 34 | 1015.1 |
| 20260504224008 | 25 | 295 | 3.2 | 8.0 | 0.00 | 0.00 | 0.00 | 33 | 1015.1 |
| 20260504223508 | 25 | 210 | 3.2 | 11.3 | 0.00 | 0.00 | 0.00 | 33 | 1015.2 |
| 20260504223039 | 25 | 157 | 4.8 | 12.9 | 0.00 | 0.00 | 0.00 | 33 | 1015.2 |
| 20260504222508 | 25 | 232 | 4.8 | 12.9 | 0.00 | 0.00 | 0.00 | 32 | 1015.2 |
| 20260504222006 | 26 | 287 | 1.6 | 8.0 | 0.00 | 0.00 | 0.00 | 33 | 1015.2 |
| 20260504221527 | 26 | 110 | 1.6 | 9.7 | 0.00 | 0.00 | 0.00 | 34 | 1015.2 |
| 20260504221008 | 26 | 332 | 1.6 | 9.7 | 0.00 | 0.00 | 0.00 | 33 | 1015.2 |
| 20260504220509 | 26 | 155 | 3.2 | 8.0 | 0.00 | 0.00 | 0.00 | 32 | 1015.2 |
| 20260504220028 | 26 | 311 | 1.6 | 9.7 | 0.00 | 0.00 | 0.00 | 32 | 1015.2 |
| 20260504215508 | 26 | 288 | 1.6 | 9.7 | 0.00 | 0.00 | 0.00 | 33 | 1015.2 |
| 20260504215009 | 26 | 337 | 1.6 | 6.4 | 0.00 | 0.00 | 0.00 | 34 | 1015.1 |
| 20260504214530 | 26 | 105 | 3.2 | 11.3 | 0.00 | 0.00 | 0.00 | 32 | 1015.0 |
| 20260504214009 | 26 | 307 | 1.6 | 11.3 | 0.00 | 0.00 | 0.00 | 31 | 1015.2 |
| 20260504213512 | 26 | 224 | 0.0 | 8.0 | 0.00 | 0.00 | 0.00 | 31 | 1015.1 |
| 20260504213040 | 26 | 286 | 3.2 | 11.3 | 0.00 | 0.00 | 0.00 | 32 | 1015.1 |
| 20260504212511 | 26 | 69 | 1.6 | 11.3 | 0.00 | 0.00 | 0.00 | 31 | 1015.1 |
| 20260504212008 | 26 | 205 | 3.2 | 6.4 | 0.00 | 0.00 | 0.00 | 32 | 1015.1 |
| 20260504211532 | 26 | 336 | 1.6 | 6.4 | 0.00 | 0.00 | 0.00 | 32 | 1015.1 |
| 20260504211009 | 26 | 61 | 1.6 | 6.4 | 0.00 | 0.00 | 0.00 | 31 | 1015.2 |
| 20260504210507 | 26 | 32 | 1.6 | 4.8 | 0.00 | 0.00 | 0.00 | 31 | 1015.1 |
| 20260504210023 | 26 | 279 | 1.6 | 8.0 | 0.00 | 0.00 | 0.00 | 33 | 1015.1 |
| 20260504205510 | 26 | 130 | 3.2 | 12.9 | 0.00 | 0.00 | 0.00 | 31 | 1015.2 |
| 20260504205008 | 26 | 293 | 3.2 | 12.9 | 0.00 | 0.00 | 0.00 | 32 | 1015.2 |
| 20260504204537 | 26 | 270 | 3.2 | 9.7 | 0.00 | 0.00 | 0.00 | 32 | 1015.1 |
| 20260504204014 | 26 | 293 | 3.2 | 9.7 | 0.00 | 0.00 | 0.00 | 31 | 1015.1 |
| 20260504203506 | 26 | 71 | 3.2 | 9.7 | 0.00 | 0.00 | 0.00 | 32 | 1015.2 |
| 20260504203017 | 27 | 270 | 1.6 | 9.7 | 0.00 | 0.00 | 0.00 | 32 | 1015.2 |
| 20260504202506 | 27 | 78 | 3.2 | 9.7 | 0.00 | 0.00 | 0.00 | 33 | 1015.2 |
| 20260504202006 | 27 | 67 | 3.2 | 9.7 | 0.00 | 0.00 | 0.00 | 31 | 1015.3 |
| 20260504201518 | 27 | 309 | 1.6 | 4.8 | 0.00 | 0.00 | 0.00 | 31 | 1015.3 |
| 20260504201006 | 27 | 336 | 1.6 | 6.4 | 0.00 | 0.00 | 0.00 | 31 | 1015.3 |
| 20260504200507 | 27 | 184 | 1.6 | 6.4 | 0.00 | 0.00 | 0.00 | 30 | 1015.3 |
| 20260504200023 | 27 | 226 | 3.2 | 4.8 | 0.00 | 0.00 | 0.00 | 33 | 1015.4 |
| 20260504195509 | 26 | 281 | 1.6 | 9.7 | 0.00 | 0.00 | 0.00 | 30 | 1015.5 |
| 20260504195012 | 26 | 282 | 3.2 | 9.7 | 0.00 | 0.00 | 0.00 | 31 | 1015.6 |
| 20260504194525 | 26 | 255 | 1.6 | 6.4 | 0.00 | 0.00 | 0.00 | 32 | 1015.7 |
| 20260504194009 | 26 | 284 | 3.2 | 12.9 | 0.00 | 0.00 | 0.00 | 30 | 1015.7 |
| 20260504193509 | 26 | 310 | 4.8 | 12.9 | 0.00 | 0.00 | 0.00 | 29 | 1015.9 |
| 20260504193008 | 26 | 276 | 3.2 | 6.4 | 0.00 | 0.00 | 0.00 | 32 | 1015.9 |
| 20260504192505 | 26 | 65 | 1.6 | 8.0 | 0.00 | 0.00 | 0.00 | 32 | 1015.9 |
| 20260504192007 | 27 | 96 | 3.2 | 8.0 | 0.00 | 0.00 | 0.00 | 30 | 1016.1 |
| 20260504191514 | 27 | 320 | 1.6 | 12.9 | 0.00 | 0.00 | 0.00 | 32 | 1016.1 |
| 20260504191007 | 26 | 22 | 3.2 | 12.9 | 0.00 | 0.00 | 0.00 | 32 | 1016.2 |
| 20260504190507 | 27 | 281 | 3.2 | 12.9 | 0.00 | 0.00 | 0.00 | 31 | 1016.3 |
| 20260504190016 | 27 | 195 | 1.6 | 9.7 | 0.00 | 0.00 | 0.00 | 31 | 1016.4 |
| 20260504185506 | 27 | 280 | 4.8 | 9.7 | 0.00 | 0.00 | 0.00 | 29 | 1016.5 |
| 20260504185009 | 27 | 306 | 0.0 | 4.8 | 0.00 | 0.00 | 0.00 | 30 | 1016.5 |
| 20260504184524 | 27 | 306 | 1.6 | 12.9 | 0.00 | 0.00 | 0.00 | 28 | 1016.6 |
| 20260504184009 | 27 | 318 | 0.0 | 12.9 | 0.00 | 0.00 | 0.00 | 31 | 1016.7 |
| 20260504183510 | 27 | 291 | 1.6 | 8.0 | 0.00 | 0.00 | 0.00 | 31 | 1016.7 |
| 20260504183026 | 27 | 304 | 1.6 | 8.0 | 0.00 | 0.00 | 0.00 | 28 | 1016.8 |
| 20260504182511 | 27 | 139 | 1.6 | 8.0 | 0.00 | 0.00 | 0.00 | 30 | 1016.8 |
| 20260504182011 | 27 | 30 | 1.6 | 4.8 | 0.00 | 0.00 | 0.00 | 31 | 1017.0 |
| 20260504181531 | 27 | 195 | 1.6 | 6.4 | 0.00 | 0.00 | 0.00 | 30 | 1016.9 |
| 20260504181010 | 27 | 272 | 3.2 | 6.4 | 0.00 | 0.00 | 0.00 | 29 | 1017.0 |
| 20260504180507 | 27 | 335 | 0.0 | 4.8 | 0.00 | 0.00 | 0.00 | 30 | 1017.0 |
| 20260504180018 | 26 | 226 | 0.0 | 4.8 | 0.00 | 0.00 | 0.00 | 32 | 1017.0 |
| 20260504175506 | 26 | 211 | 1.6 | 4.8 | 0.00 | 0.00 | 0.00 | 35 | 1017.0 |
| 20260504175007 | 26 | 200 | 3.2 | 8.0 | 0.00 | 0.00 | 0.00 | 34 | 1017.1 |
| 20260504174520 | 25 | 316 | 1.6 | 8.0 | 0.00 | 0.00 | 0.00 | 34 | 1017.0 |
| 20260504174007 | 26 | 345 | 4.8 | 8.0 | 0.00 | 0.00 | 0.00 | 33 | 1017.0 |
| 20260504173508 | 25 | 277 | 1.6 | 8.0 | 0.00 | 0.00 | 0.00 | 34 | 1017.1 |
| 20260504173024 | 25 | 37 | 1.6 | 11.3 | 0.00 | 0.00 | 0.00 | 33 | 1017.2 |
| 20260504172509 | 25 | 295 | 0.0 | 11.3 | 0.00 | 0.00 | 0.00 | 38 | 1017.3 |
| 20260504172003 | 25 | 274 | 1.6 | 6.4 | 0.00 | 0.00 | 0.00 | 36 | 1017.3 |
| 20260504171510 | 25 | 285 | 3.2 | 6.4 | 0.00 | 0.00 | 0.00 | 36 | 1017.3 |
| 20260504171003 | 25 | 336 | 0.0 | 4.8 | 0.00 | 0.00 | 0.00 | 37 | 1017.4 |
| 20260504170507 | 25 | 291 | 0.0 | 6.4 | 0.00 | 0.00 | 0.00 | 40 | 1017.5 |
| 20260504151008 | 23 | 293 | 0.0 | 6.4 | 0.00 | 0.00 | 0.00 | 44 | 1018.5 |
| 20260504150511 | 22 | 291 | 1.6 | 6.4 | 0.00 | 0.00 | 0.00 | 42 | 1018.5 |
| 20260504141008 | 20 | 283 | 1.6 | 4.8 | 0.00 | 0.00 | 0.00 | 56 | 1018.5 |
| 20260504140507 | 20 | 291 | 1.6 | 4.8 | 0.00 | 0.00 | 0.00 | 57 | 1018.5 |